This demonstration page uses our WeatherBlox Daily Observations layout. Learn more.

Left ArrowRight Arrow

44.8408, -93.29828

Hourly Observations for September 5, 2020

Temp ( °F °C ) Dew Point ( °F °C ) Humidity (%) Winds ( mph kmh ) Pressure ( in mb ) Visibility ( mi km ) Precip ( " mm )
12:53 am 00:53 Mostly Clear 62 16.7 48 8.9 60 60 Calm 30.09 1019 10 16 0.00 0.00
1:53 am 01:53 Clear 60 15.6 49 9.4 67 67 NW 6 9 30.11 1020 10 16 0.00 0.00
2:53 am 02:53 Clear 56 13.3 50 10 81 81 WNW 5 7 30.13 1020 10 16 0.00 0.00
3:53 am 03:53 Clear 57 13.9 50 10 78 78 Calm 30.14 1021 10 16 0.00 0.00
4:53 am 04:53 Clear 56 13.3 50 10 81 81 SW 3 6 30.16 1022 10 16 0.00 0.00
5:53 am 05:53 Clear 56 13.3 49 9.4 77 77 Calm 30.18 1022 10 16 0.00 0.00
6:53 am 06:53 Sunny 54 12.2 50 10 87 87 Calm 30.20 1023 10 16 0.00 0.00
7:53 am 07:53 Sunny 58 14.4 52 11.1 81 81 NW 3 6 30.21 1023 10 16 0.00 0.00
8:53 am 08:53 Sunny 63 17.2 53 11.7 70 70 N 3 6 30.22 1023 10 16 0.00 0.00
9:53 am 09:53 Sunny 66 18.9 52 11.1 61 61 E 3 6 30.22 1023 10 16 0.00 0.00
10:53 am 10:53 Sunny 69 20.6 52 11.1 55 55 Calm 30.22 1023 10 16 0.00 0.00
11:53 am 11:53 Sunny 73 22.8 49 9.4 43 43 VRB 5 7 30.22 1024 10 16 0.00 0.00
12:53 pm 12:53 Sunny 75 23.9 49 9.4 40 40 NW 6 9 30.21 1023 10 16 0.00 0.00
1:53 pm 13:53 Sunny 77 25 49 9.4 37 37 WNW 8 13 30.19 1022 10 16 0.00 0.00
2:53 pm 14:53 Mostly Sunny 76 24.4 46 7.8 35 35 VRB 3 6 30.18 1022 10 16 0.00 0.00
3:53 pm 15:53 Partly Cloudy 76 24.4 48 8.9 37 37 WNW 9 15 30.16 1022 10 16 0.00 0.00
4:53 pm 16:53 Mostly Cloudy 77 25 46 7.8 33 33 NW 3 6 30.15 1021 10 16 0.00 0.00
5:53 pm 17:53 Mostly Cloudy 77 25 47 8.3 35 35 Calm 30.13 1020 10 16 0.00 0.00
6:53 pm 18:53 Mostly Cloudy 74 23.3 47 8.3 38 38 SSE 6 9 30.12 1020 10 16 0.00 0.00
7:53 pm 19:53 Cloudy 72 22.2 50 10 46 46 SE 5 7 30.11 1020 10 16 0.00 0.00
8:53 pm 20:53 Cloudy 71 21.7 51 10.6 49 49 SE 6 9 30.11 1020 10 16 0.00 0.00
9:53 pm 21:53 Mostly Cloudy 69 20.6 51 10.6 53 53 ESE 7 11 30.09 1019 10 16 0.00 0.00
10:53 pm 22:53 Partly Cloudy 68 20 52 11.1 57 57 SE 8 13 30.06 1018 10 16 0.00 0.00
11:53 pm 23:53 Mostly Clear 66 18.9 54 12.2 65 65 SE 15 24 29.97 1015 10 16 0.00 0.00

Powered by AerisWeather